Location: Ferchesar
(52.6477°N, 12.4298°E)
Time: 12:25:40
(UTC+02:00)

Transit 4A - Pass Details

Date: 01 March 2021
Orbit: 869 x 975 km, 66.8° (Epoch: 15 April)

Event Time Altitude Azimuth Distance (km) Brightness Sun altitude
Rises 15:28:29 0° 296° (WNW) 3,642 11.3 18.2°
Reaches altitude 10° 15:31:44 10° 312° (NW) 2,680 10.5 17.8°
Maximum altitude 15:36:26 22° 1° (N) 1,943 9.4 17.3°
Drops below altitude 10° 15:41:03 10° 50° (NE) 2,623 9.7 16.7°
Sets 15:44:11 0° 66° (ENE) 3,545 10.3 16.4°
